Theta_e
304 306 308 312 305 305 308 308 309 308 308 310 310 310 310 313 314 313 310 310 312 314 312 310 314 320 322 323 327 334 334 338 337 337 335 337 338 336 335 339 342 342 341 339 327 321 324 328 331
303 308 311 311 304 303 303 306 308 308 310 310 310 311 312 312 313 309 309 309 311 313 312 309 309 316 325 329 331 336 337 337 339 338 337 337 338 337 335 336 338 339 338 338 328 322 324 327 329
303 309 310 305 304 303 302 305 306 307 308 307 308 309 310 311 310 309 307 306 308 310 311 310 309 309 312 325 335 335 336 338 339 339 339 339 339 338 336 335 335 336 335 335 328 323 324 327 328
307 308 308 306 307 304 304 303 303 305 307 308 307 306 310 308 309 307 306 306 306 307 308 309 309 308 308 307 310 322 335 335 337 338 340 342 340 340 338 336 335 334 335 332 328 326 325 327 328
306 308 305 303 303 304 304 305 306 305 305 307 307 305 306 304 304 304 305 305 305 305 305 305 307 308 308 307 307 307 307 325 335 337 338 339 341 340 340 338 335 334 334 332 330 328 326 326 328
304 304 302 303 304 304 303 306 305 305 305 305 305 305 306 303 302 301 300 301 301 302 302 302 303 305 306 306 306 306 306 306 310 331 335 337 338 339 340 340 337 334 334 333 332 330 329 326 328
300 300 303 303 304 304 304 305 303 301 300 303 303 304 304 303 299 298 298 298 298 299 299 300 301 302 304 305 305 305 305 306 306 306 316 330 336 338 339 340 340 336 334 334 333 332 331 327 327
301 299 302 301 300 300 302 301 301 300 298 301 302 302 303 302 297 297 297 298 298 298 298 299 299 300 300 301 303 304 305 305 305 305 306 306 321 332 337 338 341 340 336 335 334 333 332 330 327
298 295 298 299 300 299 300 298 300 300 297 298 299 300 301 300 297 297 297 297 297 297 297 298 298 298 298 298 298 300 302 303 304 303 303 305 306 309 328 336 338 340 339 336 335 334 333 333 328
296 293 296 297 298 299 298 298 297 296 297 296 296 297 297 298 298 296 296 296 296 296 296 296 297 297 297 297 297 298 298 300 301 302 302 302 304 305 307 327 336 337 340 339 336 334 334 333 331
296 295 296 297 298 298 296 295 296 294 295 296 295 296 296 296 296 296 296 296 296 296 296 296 296 296 296 297 297 297 297 297 299 299 300 300 302 304 305 309 330 335 338 339 338 335 335 333 333
295 296 296 296 296 294 294 294 294 294 294 295 295 295 295 295 296 296 296 296 296 296 296 296 296 296 296 296 296 296 296 297 297 298 298 299 299 301 304 305 328 336 335 338 339 337 335 334 333
293 294 294 295 294 294 294 294 294 294 295 295 295 295 294 295 295 296 295 295 295 296 296 296 296 296 296 296 296 296 296 296 296 296 297 297 298 299 301 303 318 332 335 334 338 337 336 335 334
294 293 293 293 293 293 293 293 294 294 295 295 295 295 294 294 295 296 296 295 295 295 295 296 296 296 296 296 296 296 296 296 296 296 296 296 296 297 298 301 303 326 332 335 337 337 336 336 335
293 292 293 292 293 293 294 294 293 295 295 295 295 295 295 295 294 295 295 295 295 295 295 295 296 295 295 296 296 296 296 296 296 296 296 296 296 296 297 298 301 309 327 332 333 335 337 336 336
292 291 292 293 294 295 295 295 294 294 294 294 294 294 295 295 295 295 295 295 295 295 295 295 295 296 295 296 296 296 296 296 296 296 296 296 296 296 296 297 299 301 307 321 324 335 336 336 335
292 293 294 293 293 294 294 294 293 294 294 293 293 294 294 295 295 294 294 294 295 295 295 295 295 295 295 296 296 296 296 296 296 296 296 296 296 296 296 296 297 303 305 306 317 329 335 336 335
294 294 293 292 292 293 293 292 292 292 292 292 293 293 293 293 293 293 294 293 293 293 294 293 293 293 292 293 294 294 295 295 294 294 294 294 295 295 295 295 296 298 306 307 314 323 332 335 335
292 292 292 292 293 293 291 291 291 291 292 291 292 292 292 292 292 292 292 291 291 291 291 291 291 291 291 291 292 292 292 293 293 293 293 293 293 294 295 295 296 296 297 301 311 312 320 334 334
293 293 292 292 293 292 291 291 290 290 291 291 291 291 291 291 291 292 292 292 292 291 290 290 290 290 290 290 290 290 291 291 291 292 292 292 293 294 295 297 296 296 296 296 300 306 314 327 333
293 293 292 292 291 291 289 289 290 290 292 291 290 290 291 291 291 291 291 290 290 290 289 289 289 289 289 289 289 289 289 289 290 291 291 291 292 292 294 295 297 298 296 297 298 298 314 316 327
293 292 292 291 290 289 289 286 289 291 292 291 291 290 290 290 290 290 289 289 289 288 287 287 287 287 287 287 287 287 287 287 288 288 289 290 290 291 292 294 295 296 298 300 303 300 307 317 324
293 292 291 290 289 283 286 285 288 289 291 291 290 290 290 290 289 288 287 285 285 285 285 285 285 285 285 285 285 285 285 286 286 287 287 288 289 290 291 292 294 294 295 296 298 305 308 308 316
289 287 288 281 275 278 284 284 287 294 293 292 291 290 290 289 289 287 283 282 283 283 283 284 284 284 284 284 284 284 284 285 285 286 286 287 288 289 290 291 293 295 295 295 295 300 307 315 315
281 281 286 280 278 280 287 287 287 292 291 290 287 290 290 289 287 286 283 282 282 281 281 282 281 282 283 283 283 284 283 283 284 284 285 286 286 287 289 291 292 293 295 296 296 296 302 313 316
285 284 287 288 284 287 288 280 287 291 291 290 289 289 288 288 287 286 283 281 280 280 280 280 281 282 282 282 283 283 283 283 283 283 284 284 285 286 288 289 291 292 294 295 296 296 298 315 315
288 279 286 288 271 279 283 286 288 291 288 287 287 288 287 288 287 285 281 280 279 279 279 281 282 282 282 282 282 282 282 282 282 282 283 284 285 286 287 288 289 291 293 295 296 297 298 311 317
286 286 283 280 285 279 282 283 285 285 283 286 286 287 287 287 287 282 281 280 280 280 283 280 281 282 282 281 281 280 279 280 280 281 282 283 284 285 286 287 289 290 292 294 295 296 301 310 317
281 281 285 283 284 286 280 280 278 277 277 282 284 288 287 286 283 281 280 280 280 280 283 279 282 281 280 279 278 278 277 277 278 279 281 282 282 283 285 286 288 289 291 293 296 296 298 311 315
280 281 286 285 281 277 277 283 273 274 278 283 287 287 286 284 281 280 280 279 279 280 279 280 281 280 277 276 276 277 277 276 276 277 278 279 281 282 284 285 287 289 290 292 296 297 296 309 315
Wind_Speed
3 3 5 4 2 4 5 6 3 7 6 1 17 9 9 13 5 5 14 7 10 12 9 5 4 4 5 9 11 14 18 19 14 13 15 18 21 23 24 25 25 24 22 21 21 22 21 19 18
2 2 3 3 3 2 6 7 10 9 9 24 27 13 3 4 3 12 8 8 13 16 13 6 5 6 6 5 9 13 16 19 18 17 16 16 20 22 24 26 26 26 25 23 23 24 23 21 19
2 3 3 4 4 7 6 4 2 8 22 12 12 19 10 1 7 12 10 8 12 14 13 9 5 4 6 8 6 8 13 15 19 21 20 18 19 22 24 26 27 27 26 25 25 25 23 22 21
5 3 2 2 10 8 3 6 9 17 30 33 10 8 1 1 6 11 11 13 11 10 10 11 10 5 3 4 6 6 6 12 13 18 19 19 20 21 23 26 28 29 28 27 27 25 23 22 21
5 3 1 4 8 4 5 13 21 15 13 17 22 4 2 8 9 5 7 7 7 7 8 10 12 11 8 5 2 1 4 4 8 11 17 22 22 22 24 26 28 30 30 30 29 26 24 23 22
4 3 2 6 6 4 5 13 15 7 17 16 5 2 6 11 2 7 8 8 9 9 9 11 11 12 11 9 8 7 6 2 2 10 16 21 24 24 25 28 29 31 32 32 31 28 26 26 24
5 3 4 4 10 6 8 13 10 9 6 2 7 4 13 12 12 8 9 11 14 13 13 12 15 16 16 15 14 13 12 11 9 8 10 18 23 27 28 30 32 32 34 35 33 31 29 28 26
2 3 3 4 6 7 3 7 11 8 7 13 2 5 3 8 18 18 19 20 22 21 20 21 22 21 22 23 21 19 18 18 17 16 15 14 19 26 29 33 35 35 35 36 36 34 32 29 29
3 2 3 5 4 7 3 7 12 23 24 19 9 17 20 29 28 29 31 31 29 29 28 29 29 28 27 26 26 25 23 23 22 22 21 20 21 19 28 32 35 37 38 38 38 37 35 32 31
4 4 7 6 4 16 12 15 18 12 23 19 21 24 28 33 41 42 37 33 32 30 26 23 26 25 24 23 23 24 24 23 24 24 24 24 24 24 23 31 38 38 40 40 40 40 38 35 33
4 6 7 10 22 27 24 22 26 9 22 23 28 36 37 34 34 32 33 32 30 25 18 18 20 20 20 21 24 24 24 24 23 25 26 26 26 26 25 26 30 35 40 44 42 42 42 41 38
5 10 16 22 21 18 17 25 15 24 30 30 35 37 41 41 37 31 30 30 27 27 28 26 21 19 22 25 24 26 25 24 25 23 25 27 28 27 26 25 25 26 34 42 48 46 45 44 41
10 9 9 18 28 30 36 22 26 28 33 41 42 42 39 40 37 29 23 24 25 26 24 21 20 20 21 25 24 24 25 25 27 27 24 25 28 28 28 27 28 29 30 35 45 48 49 45 45
4 10 15 13 24 27 26 20 18 30 34 37 35 31 35 36 37 28 27 27 25 24 22 23 25 26 26 29 31 31 31 30 30 31 27 26 27 28 28 28 29 33 32 27 39 52 51 49 48
10 15 10 10 9 8 18 24 8 31 35 32 34 36 34 31 28 29 25 27 27 25 25 25 26 27 30 30 30 33 33 33 34 34 30 27 27 27 27 29 30 33 38 30 20 43 54 52 49
6 2 6 3 14 5 15 26 17 32 34 31 32 35 37 36 33 33 31 26 26 28 28 24 25 26 28 30 30 31 32 33 35 35 34 32 31 31 31 30 31 31 34 40 27 33 56 56 53
2 10 19 16 14 11 6 24 23 34 28 25 26 30 31 34 36 32 25 22 25 25 17 14 13 14 19 24 27 29 31 34 37 38 38 37 34 30 31 33 32 30 31 32 35 22 51 55 55
16 18 17 22 16 17 15 21 19 36 32 26 28 27 26 30 26 15 2 6 4 2 7 10 14 17 19 20 24 28 33 37 37 36 33 33 35 34 32 33 34 35 33 31 29 37 33 53 59
12 17 17 20 20 11 18 20 25 27 28 25 25 22 22 1 15 14 12 8 6 6 10 15 20 23 25 27 28 31 34 36 38 38 37 35 34 33 32 32 35 36 38 35 31 34 44 44 60
11 16 15 17 13 14 18 25 24 18 16 25 22 3 12 13 14 12 9 10 13 23 25 25 26 28 30 30 32 34 38 42 43 43 42 39 36 35 33 30 33 36 37 35 35 30 33 43 41
12 13 11 16 21 14 8 12 13 13 12 23 23 22 20 21 24 24 22 22 25 29 31 32 33 33 34 34 35 36 38 41 45 47 47 46 41 38 38 37 31 31 33 34 30 33 30 32 28
15 9 11 16 13 10 4 5 7 10 8 12 15 20 22 21 21 23 28 32 31 32 32 33 33 34 35 33 34 34 36 39 43 41 42 42 40 42 42 42 39 36 33 34 31 30 34 28 27
7 13 11 18 12 4 7 3 7 12 7 7 6 14 18 22 22 28 26 26 28 30 31 31 31 32 32 33 33 35 39 40 39 40 42 42 43 43 42 42 41 40 40 39 35 30 28 36 37
10 9 15 5 3 3 5 4 5 2 3 2 2 16 17 24 25 24 25 28 32 33 33 32 32 32 31 31 32 35 37 38 38 42 41 42 39 42 43 43 42 39 38 39 36 35 32 32 35
8 7 5 5 4 5 7 6 7 2 4 2 4 19 22 23 25 25 31 33 34 35 35 35 34 35 33 33 33 35 38 40 43 45 46 42 41 43 45 40 42 44 39 35 34 35 33 32 35
13 5 1 5 2 8 8 4 5 5 3 6 17 21 24 26 29 29 34 35 35 35 35 36 38 39 36 35 37 37 38 40 42 43 46 47 45 46 44 44 42 42 41 39 34 33 35 31 36
4 3 5 4 1 3 3 6 12 5 6 10 19 23 24 27 31 34 36 36 36 36 35 36 37 38 38 38 38 40 41 42 44 43 43 46 46 47 47 46 43 43 43 40 38 33 34 34 37
3 6 5 3 4 5 5 5 5 10 9 17 16 20 25 30 34 37 38 38 36 36 35 37 38 39 39 40 40 41 42 42 43 43 45 46 47 46 45 46 46 46 42 42 38 37 33 35 39
6 4 3 2 1 2 4 5 7 6 6 12 14 24 26 31 35 35 36 36 37 37 39 42 43 42 42 39 38 40 41 41 42 44 46 46 45 43 43 46 45 45 45 43 39 38 37 35 43
4 5 2 2 6 2 2 7 3 5 8 8 17 24 26 31 34 36 38 40 40 41 44 44 47 46 42 40 38 37 39 39 41 44 44 42 43 42 42 43 43 45 46 45 41 38 38 38 48
Wind_Direction
320 246 196 155 56 65 281 252 275 289 316 245 326 298 257 258 197 221 144 167 186 199 197 176 145 150 166 202 201 199 206 202 214 224 215 208 209 213 213 214 216 219 220 217 207 202 198 194 193
286 193 160 91 102 231 250 207 216 225 245 317 323 322 311 263 35 127 124 163 209 204 204 195 151 126 118 152 202 204 204 208 207 211 221 225 214 216 218 217 217 218 218 215 211 206 203 199 199
205 179 110 135 187 215 230 216 252 313 310 303 311 298 301 57 130 150 147 167 206 207 205 208 202 157 119 117 155 206 213 212 214 210 212 221 225 222 221 221 219 219 217 214 211 211 206 202 204
145 120 130 128 239 258 247 321 344 322 304 300 309 300 143 273 191 174 173 187 203 204 209 219 214 214 189 124 118 128 199 220 226 226 218 219 223 227 230 225 222 219 217 215 212 212 208 204 206
134 99 27 251 256 266 280 284 298 286 290 293 307 278 94 96 111 149 209 240 247 250 246 248 230 217 217 221 248 180 128 181 217 226 227 229 228 228 231 232 226 221 218 216 214 213 210 206 206
121 131 174 236 247 303 267 271 287 271 295 304 330 319 171 136 153 351 326 300 299 292 284 286 283 275 254 244 262 271 268 250 222 230 233 231 233 235 230 231 230 226 220 217 217 214 212 208 207
130 113 232 278 269 272 274 306 293 308 304 245 316 243 177 159 350 1 334 323 315 310 302 300 302 300 294 283 284 284 281 271 275 273 250 249 241 236 237 232 230 229 225 221 218 218 214 210 207
162 106 296 262 270 290 273 312 314 318 282 301 314 269 223 221 317 310 307 301 306 309 310 306 303 302 303 301 289 283 283 283 279 282 276 263 254 247 239 237 233 228 229 225 222 219 219 213 208
177 68 246 258 269 261 282 332 296 295 283 278 255 275 279 293 297 300 301 299 296 298 300 299 299 298 298 298 299 295 286 284 282 283 282 274 268 258 249 240 237 231 228 229 225 223 221 219 213
153 160 225 221 264 289 281 283 283 285 290 282 288 274 280 287 292 298 300 300 299 299 300 298 296 297 296 295 296 297 297 288 287 283 281 276 269 265 264 243 237 235 229 227 228 225 223 221 215
195 218 250 280 292 298 300 292 298 281 281 282 290 293 290 291 292 290 291 293 298 299 293 296 297 290 292 298 293 293 293 296 286 282 279 276 269 264 261 263 247 244 233 224 225 227 225 220 218
290 247 276 293 297 309 291 300 281 277 284 293 288 284 285 285 285 282 286 287 288 290 293 289 282 287 292 296 294 293 291 290 291 280 275 273 268 261 258 258 252 239 243 227 221 222 226 221 220
249 262 279 295 298 295 295 290 288 290 295 297 296 291 282 279 278 273 283 287 292 290 289 283 281 290 292 294 293 290 293 290 291 286 275 272 269 264 257 250 246 236 237 248 219 222 223 221 221
277 285 284 285 282 283 280 288 300 297 314 302 298 305 304 285 280 266 279 280 289 294 291 290 288 287 287 287 285 287 288 284 285 289 282 274 270 267 259 251 247 243 237 234 240 224 222 221 219
289 299 293 260 272 271 315 287 279 301 303 297 295 296 299 300 282 279 280 286 288 287 284 285 282 281 285 281 279 277 277 279 283 284 283 271 270 266 263 257 246 243 240 241 234 233 226 224 219
301 302 317 0 297 258 308 293 309 298 291 288 288 292 287 286 284 278 284 284 280 283 283 272 268 267 267 268 265 266 269 273 278 279 277 277 273 268 265 258 252 245 247 250 245 235 225 224 219
254 295 311 314 321 311 283 292 296 296 291 283 283 281 282 286 292 293 290 284 275 271 257 245 254 259 251 250 256 260 264 268 272 272 272 274 272 268 266 259 252 250 249 252 260 239 220 219 220
303 309 303 309 319 313 308 294 298 296 296 292 282 278 279 288 292 302 36 103 115 217 269 294 299 300 296 284 272 268 266 267 270 269 268 268 268 265 265 262 254 249 250 248 254 235 233 222 220
294 297 301 300 308 309 299 302 295 293 296 286 279 275 284 64 90 95 91 74 44 356 326 312 303 299 296 293 288 279 275 270 268 267 268 265 264 263 263 261 255 249 250 250 249 254 243 219 216
302 292 293 301 305 309 305 294 291 297 287 286 282 154 89 69 44 31 9 342 323 322 319 311 304 297 292 288 283 279 277 273 271 269 267 264 261 259 257 259 257 251 250 251 250 253 258 235 212
302 293 296 308 312 299 305 296 308 318 358 40 62 82 53 28 8 349 338 330 323 319 315 308 302 295 290 285 282 279 276 272 270 267 267 265 260 254 252 251 252 253 248 249 252 241 247 255 250
301 296 308 311 322 304 97 282 307 335 351 29 35 42 23 6 354 343 338 332 322 313 308 303 297 291 286 283 279 275 273 272 269 271 269 266 262 256 251 250 249 248 248 245 246 244 237 243 236
289 314 302 309 290 30 339 61 281 328 59 24 349 0 0 358 347 339 333 329 327 324 318 312 304 296 290 284 277 273 269 268 269 269 268 266 263 256 249 248 248 247 246 247 245 243 238 243 239
329 322 323 22 89 23 246 104 286 337 282 177 339 345 345 341 335 334 335 331 326 323 320 316 309 302 296 288 280 272 267 266 264 263 262 261 261 261 254 247 243 244 243 243 243 241 237 240 242
359 355 304 344 357 226 290 326 247 209 243 189 286 329 334 334 334 333 333 332 327 323 320 318 312 306 300 292 284 277 272 267 263 260 260 258 258 255 253 248 243 240 240 241 240 240 238 237 239
314 184 227 289 263 289 306 245 267 211 200 343 326 333 329 338 337 331 335 332 328 326 321 319 314 308 303 296 290 282 275 270 265 262 259 258 256 254 253 249 245 239 239 238 239 239 234 233 237
343 19 234 259 67 42 270 289 304 181 326 347 334 334 330 331 336 336 336 334 333 329 326 321 316 309 304 298 291 284 278 273 268 263 259 256 255 254 252 248 244 241 235 235 235 239 234 228 227
2 278 336 350 314 303 292 284 235 316 313 330 332 332 325 334 337 338 337 336 335 333 331 327 322 316 307 300 292 286 281 275 271 266 258 254 252 249 248 247 243 240 236 231 233 233 229 228 226
333 328 296 177 120 319 321 267 226 253 261 310 312 326 326 332 335 337 337 339 338 337 335 332 328 321 311 303 296 289 282 276 270 265 259 253 250 245 244 243 241 238 234 228 230 229 228 227 222
199 218 219 29 308 260 182 275 213 222 288 288 308 321 327 333 338 340 343 345 341 340 337 333 331 326 318 309 301 290 282 275 268 263 259 255 248 241 240 240 239 237 233 227 225 229 225 221 217